Overview Statistics Trail Chart Weather Telemetry Raw packets
 

This is the latest recevied weather packets stored in our database for station/object W8RSN-13. If no packets are shown the sender has not sent any weather packets the latest 10 day(s).

<< 5 6 7 8 9 10 11 >>
Time Temp. Humidity Pressure Rain* Wind** Luminosity Snow
1788638659 30.56° C 24% 1015.7 hPa - - - -
1788638358 31.11° C 25% 1015.8 hPa - - - -
1788638057 30.56° C 26% 1015.9 hPa - - - -
1788637455 31.11° C 26% 1016 hPa - - - -
1788637175 30.56° C 25% 1016 hPa - - - -
1788636874 30° C 26% 1016.2 hPa - - - -
1788636573 30° C 25% 1016.2 hPa - - - -
1788636272 30° C 25% 1016.2 hPa - - - -
1788635971 30° C 27% 1016.3 hPa - - - -
1788635670 29.44° C 26% 1016.5 hPa - - - -
1788635369 29.44° C 27% 1016.2 hPa - - - -
1788635068 29.44° C 27% 1016.5 hPa - - - -
1788634768 29.44° C 27% 1016.5 hPa - - - -
1788634466 29.44° C 27% 1016.7 hPa - - - -
1788634166 28.89° C 27% 1016.7 hPa - - - -
1788633865 28.33° C 27% 1016.8 hPa - - - -
1788633564 28.89° C 27% 1016.7 hPa - - - -
1788633263 28.89° C 27% 1016.9 hPa - - - -
1788632962 28.33° C 29% 1016.7 hPa - - - -
1788632662 28.33° C 29% 1016.7 hPa - - - -
1788632361 28.33° C 29% 1016.8 hPa - - - -
1788632059 28.33° C 28% 1016.9 hPa - - - -
1788631759 27.78° C 29% 1016.8 hPa - - - -
1788631458 27.78° C 30% 1016.8 hPa - - - -
1788631157 27.78° C 30% 1016.9 hPa - - - -

* Rain since midnight (hover to see other rain measurements)
** Current wind speed in m/s (hover to see current wind gust speed)